ACA189 CYVR-CYYC

Flight info

Callsign ACA189
Flight time 1h 5m
Altitude 39000
Route DAPED DCT PETLI DCT MENBO Q983 NORET IGVEP7
Aircraft B38M/M-SDE1FGHILORVWXY/HB1

Departure

Time 2026-05-04 01:15
Airport Vancouver International Airport (CYVR)

Arrival

Time 2026-05-04 02:20
Airport Calgary International Airport (CYYC)
Time Latitude Longitude Altitude Speed Heading
2026-05-04 00:40 49.19833 -123.17471 27 ft 0 kts 157°
2026-05-04 00:54 49.19834 -123.17472 27 ft 1 kts 157°
2026-05-04 00:55 49.19856 -123.17486 27 ft 4 kts 157°
2026-05-04 00:55 49.19879 -123.17501 27 ft 2 kts 157°
2026-05-04 00:55 49.19900 -123.17510 27 ft 4 kts 186°
2026-05-04 00:55 49.19916 -123.17496 27 ft 4 kts 260°
2026-05-04 00:56 49.19918 -123.17458 27 ft 2 kts 265°
2026-05-04 00:56 49.19919 -123.17455 27 ft 0 kts 265°
2026-05-04 01:03 49.19919 -123.17457 27 ft 1 kts 265°
2026-05-04 01:03 49.19916 -123.17480 27 ft 4 kts 260°
2026-05-04 01:04 49.19913 -123.17537 27 ft 7 kts 269°
2026-05-04 01:04 49.19920 -123.17626 27 ft 10 kts 280°
2026-05-04 01:04 49.19928 -123.17691 27 ft 12 kts 280°
2026-05-04 01:04 49.19942 -123.17796 27 ft 14 kts 290°
2026-05-04 01:05 49.19984 -123.17932 27 ft 15 kts 283°
2026-05-04 01:05 49.19999 -123.18102 27 ft 17 kts 277°
2026-05-04 01:05 49.20025 -123.18291 27 ft 19 kts 281°
2026-05-04 01:05 49.20037 -123.18481 27 ft 14 kts 246°
2026-05-04 01:06 49.19946 -123.18540 27 ft 16 kts 190°
2026-05-04 01:06 49.19830 -123.18572 27 ft 18 kts 190°
2026-05-04 01:06 49.19712 -123.18651 27 ft 20 kts 222°
2026-05-04 01:06 49.19576 -123.18709 27 ft 22 kts 190°
2026-05-04 01:07 49.19437 -123.18731 27 ft 13 kts 162°
2026-05-04 01:07 49.19343 -123.18695 27 ft 15 kts 188°
2026-05-04 01:07 49.19271 -123.18719 27 ft 17 kts 192°
2026-05-04 01:07 49.19125 -123.18650 27 ft 19 kts 142°
2026-05-04 01:08 49.19051 -123.18562 27 ft 21 kts 142°
2026-05-04 01:08 49.18951 -123.18395 27 ft 23 kts 107°
2026-05-04 01:08 49.18920 -123.18140 27 ft 26 kts 100°
2026-05-04 01:08 49.18887 -123.17853 27 ft 28 kts 99°
2026-05-04 01:09 49.18855 -123.17543 27 ft 31 kts 99°
2026-05-04 01:09 49.18817 -123.17245 27 ft 26 kts 101°
2026-05-04 01:09 49.18785 -123.16963 27 ft 28 kts 99°
2026-05-04 01:09 49.18752 -123.16669 27 ft 23 kts 99°
2026-05-04 01:10 49.18725 -123.16433 27 ft 24 kts 101°
2026-05-04 01:10 49.18668 -123.16250 27 ft 15 kts 133°
2026-05-04 01:10 49.18635 -123.16161 27 ft 10 kts 103°
2026-05-04 01:10 49.18607 -123.16059 27 ft 6 kts 139°
2026-05-04 01:11 49.18590 -123.16045 27 ft 2 kts 163°
2026-05-04 01:11 49.18589 -123.16045 27 ft 0 kts 163°
2026-05-04 01:12 49.18586 -123.16044 27 ft 1 kts 169°
2026-05-04 01:12 49.18567 -123.16042 22 ft 4 kts 179°
2026-05-04 01:12 49.18528 -123.16048 27 ft 7 kts 187°
2026-05-04 01:13 49.18481 -123.16079 27 ft 9 kts 235°
2026-05-04 01:13 49.18478 -123.16135 27 ft 1 kts 280°
2026-05-04 01:13 49.18478 -123.16136 27 ft 0 kts 280°
2026-05-04 01:14 49.18484 -123.16185 27 ft 19 kts 281°
2026-05-04 01:14 49.18557 -123.16814 27 ft 99 kts 280°
2026-05-04 01:14 49.18712 -123.18194 35 ft 160 kts 281°
2026-05-04 01:14 49.18908 -123.19996 552 ft 177 kts 280°
2026-05-04 01:15 49.19115 -123.21819 1602 ft 172 kts 281°
2026-05-04 01:15 49.19507 -123.23651 2058 ft 201 kts 304°
2026-05-04 01:15 49.20738 -123.24946 2324 ft 238 kts 346°
2026-05-04 01:15 49.22334 -123.24611 3370 ft 239 kts 26°
2026-05-04 01:16 49.23565 -123.22810 4177 ft 259 kts 61°
2026-05-04 01:16 49.23932 -123.20073 4942 ft 272 kts 97°
2026-05-04 01:16 49.23435 -123.17307 6039 ft 272 kts 104°
2026-05-04 01:16 49.23063 -123.14488 7042 ft 273 kts 98°
2026-05-04 01:17 49.22784 -123.11590 8011 ft 277 kts 96°
2026-05-04 01:17 49.22558 -123.08641 8992 ft 281 kts 94°
2026-05-04 01:17 49.22368 -123.05664 9963 ft 284 kts 94°
2026-05-04 01:17 49.22195 -123.02622 10626 ft 297 kts 93°
2026-05-04 01:18 49.22036 -122.99356 11073 ft 317 kts 92°
2026-05-04 01:18 49.21881 -122.95915 11664 ft 330 kts 92°
2026-05-04 01:18 49.21719 -122.92380 12459 ft 335 kts 92°
2026-05-04 01:18 49.21542 -122.88800 13296 ft 341 kts 93°
2026-05-04 01:19 49.21361 -122.85151 14060 ft 347 kts 93°
2026-05-04 01:19 49.21176 -122.81450 14822 ft 351 kts 92°
2026-05-04 01:19 49.20986 -122.77717 15593 ft 356 kts 92°
2026-05-04 01:19 49.20793 -122.73919 16340 ft 360 kts 92°
2026-05-04 01:20 49.20596 -122.70125 17071 ft 364 kts 92°
2026-05-04 01:20 49.20393 -122.66186 17777 ft 370 kts 92°
2026-05-04 01:20 49.20190 -122.62303 18436 ft 374 kts 92°
2026-05-04 01:20 49.19978 -122.58265 19057 ft 378 kts 92°
2026-05-04 01:21 49.19768 -122.54306 19655 ft 381 kts 92°
2026-05-04 01:21 49.19551 -122.50244 20264 ft 385 kts 92°
2026-05-04 01:21 49.19330 -122.46140 20852 ft 389 kts 92°
2026-05-04 01:21 49.19106 -122.42002 21437 ft 393 kts 92°
2026-05-04 01:22 49.18878 -122.37816 22011 ft 397 kts 92°
2026-05-04 01:22 49.18645 -122.33592 22579 ft 401 kts 92°
2026-05-04 01:22 49.18409 -122.29328 23159 ft 404 kts 92°
2026-05-04 01:22 49.18169 -122.25041 23712 ft 406 kts 92°
2026-05-04 01:23 49.17929 -122.20687 24041 ft 412 kts 92°
2026-05-04 01:23 49.17681 -122.16326 24634 ft 411 kts 92°
2026-05-04 01:23 49.17430 -122.11957 25078 ft 415 kts 92°
2026-05-04 01:23 49.17177 -122.07547 25543 ft 417 kts 92°
2026-05-04 01:24 49.16921 -122.03126 26021 ft 420 kts 91°
2026-05-04 01:24 49.16661 -121.98673 26488 ft 422 kts 91°
2026-05-04 01:24 49.16398 -121.94195 26949 ft 424 kts 91°
2026-05-04 01:24 49.16136 -121.89754 27404 ft 426 kts 91°
2026-05-04 01:25 49.15866 -121.85233 27858 ft 428 kts 91°
2026-05-04 01:25 49.15594 -121.80687 28288 ft 431 kts 91°
2026-05-04 01:25 49.15318 -121.76115 28714 ft 433 kts 91°
2026-05-04 01:25 49.15038 -121.71516 29131 ft 436 kts 92°
2026-05-04 01:26 49.14897 -121.66889 29422 ft 435 kts 81°
2026-05-04 01:26 49.15333 -121.62340 29918 ft 433 kts 79°
2026-05-04 01:26 49.15728 -121.57748 30074 ft 438 kts 79°
2026-05-04 01:26 49.16129 -121.53137 30485 ft 438 kts 78°
2026-05-04 01:27 49.16539 -121.48519 30825 ft 440 kts 78°
2026-05-04 01:27 49.16951 -121.43882 31222 ft 441 kts 78°
2026-05-04 01:27 49.17363 -121.39240 31624 ft 441 kts 78°
2026-05-04 01:27 49.17774 -121.34588 31982 ft 442 kts 77°
2026-05-04 01:28 49.18182 -121.29926 32347 ft 443 kts 77°
2026-05-04 01:28 49.18591 -121.25256 32779 ft 443 kts 77°
2026-05-04 01:28 49.18995 -121.20616 33311 ft 440 kts 77°
2026-05-04 01:28 49.19395 -121.15989 33856 ft 436 kts 76°
2026-05-04 01:29 49.19784 -121.11473 34346 ft 433 kts 76°
2026-05-04 01:29 49.20176 -121.06914 34740 ft 432 kts 76°
2026-05-04 01:29 49.20564 -121.02361 35118 ft 431 kts 76°
2026-05-04 01:29 49.20951 -120.97808 35491 ft 430 kts 76°
2026-05-04 01:30 49.21334 -120.93274 35869 ft 429 kts 76°
2026-05-04 01:30 49.21714 -120.88760 36203 ft 428 kts 76°
2026-05-04 01:30 49.22092 -120.84242 36518 ft 428 kts 76°
2026-05-04 01:30 49.22469 -120.79732 36868 ft 427 kts 76°
2026-05-04 01:31 49.22842 -120.75229 37210 ft 426 kts 76°
2026-05-04 01:31 49.23213 -120.70733 37491 ft 426 kts 76°
2026-05-04 01:31 49.23583 -120.66231 37796 ft 426 kts 76°
2026-05-04 01:31 49.23952 -120.61727 37963 ft 427 kts 76°
2026-05-04 01:32 49.24318 -120.57222 38257 ft 426 kts 76°
2026-05-04 01:32 49.24682 -120.52724 38526 ft 426 kts 76°
2026-05-04 01:32 49.25044 -120.48228 38747 ft 425 kts 76°
2026-05-04 01:32 49.25400 -120.43797 38905 ft 425 kts 76°
2026-05-04 01:33 49.25763 -120.39233 38943 ft 427 kts 76°
2026-05-04 01:33 49.26470 -120.30299 38927 ft 424 kts 76°
2026-05-04 01:34 49.27174 -120.21312 38953 ft 425 kts 76°
2026-05-04 01:34 49.27875 -120.12287 38919 ft 428 kts 76°
2026-05-04 01:35 49.28566 -120.03270 38912 ft 428 kts 76°
2026-05-04 01:35 49.29253 -119.94225 38902 ft 428 kts 76°
2026-05-04 01:36 49.29934 -119.85167 38867 ft 427 kts 76°
2026-05-04 01:36 49.30611 -119.76092 38895 ft 430 kts 77°
2026-05-04 01:37 49.31285 -119.66975 38882 ft 433 kts 77°
2026-05-04 01:37 49.31784 -119.62462 38858 ft 424 kts 65°
2026-05-04 01:37 49.32944 -119.58393 38896 ft 415 kts 57°
2026-05-04 01:38 49.35503 -119.50399 38897 ft 419 kts 59°
2026-05-04 01:38 49.38115 -119.42414 38895 ft 418 kts 58°
2026-05-04 01:39 49.40714 -119.34483 38906 ft 417 kts 58°
2026-05-04 01:39 49.43315 -119.26478 38903 ft 421 kts 58°
2026-05-04 01:40 49.45945 -119.18424 38878 ft 421 kts 58°
2026-05-04 01:40 49.48557 -119.10367 38902 ft 421 kts 57°
2026-05-04 01:41 49.51155 -119.02327 38895 ft 419 kts 57°
2026-05-04 01:41 49.53722 -118.94282 38903 ft 420 kts 58°
2026-05-04 01:42 49.56332 -118.86215 38909 ft 422 kts 57°
2026-05-04 01:42 49.58927 -118.78121 38913 ft 421 kts 58°
2026-05-04 01:43 49.61515 -118.70008 38905 ft 421 kts 58°
2026-05-04 01:43 49.64096 -118.61891 38914 ft 422 kts 58°
2026-05-04 01:44 49.66656 -118.53734 38911 ft 423 kts 57°
2026-05-04 01:44 49.69257 -118.45527 38927 ft 425 kts 57°
2026-05-04 01:45 49.71860 -118.37312 38919 ft 426 kts 58°
2026-05-04 01:45 49.75729 -118.24972 38912 ft 425 kts 58°
2026-05-04 01:46 49.78280 -118.16723 38907 ft 427 kts 58°
2026-05-04 01:46 49.80881 -118.08428 38907 ft 429 kts 58°
2026-05-04 01:47 49.83468 -118.00101 38922 ft 429 kts 58°
2026-05-04 01:47 49.86020 -117.91808 38929 ft 429 kts 58°
2026-05-04 01:48 49.88603 -117.83460 38914 ft 429 kts 58°
2026-05-04 01:48 49.91166 -117.75079 38920 ft 428 kts 58°
2026-05-04 01:49 49.93715 -117.66781 38924 ft 428 kts 58°
2026-05-04 01:49 49.96270 -117.58404 38913 ft 428 kts 58°
2026-05-04 01:50 49.98808 -117.50053 38902 ft 428 kts 58°
2026-05-04 01:50 50.01332 -117.41685 38905 ft 429 kts 58°
2026-05-04 01:51 50.03863 -117.33326 38909 ft 431 kts 58°
2026-05-04 01:51 50.06404 -117.24882 38949 ft 432 kts 58°
2026-05-04 01:52 50.08919 -117.16451 38880 ft 431 kts 58°
2026-05-04 01:52 50.11464 -117.07970 38918 ft 432 kts 58°
2026-05-04 01:53 50.13985 -116.99461 38731 ft 431 kts 59°
2026-05-04 01:53 50.15250 -116.95209 37844 ft 434 kts 58°
2026-05-04 01:53 50.16528 -116.90920 36972 ft 437 kts 59°
2026-05-04 01:54 50.17804 -116.86611 36295 ft 437 kts 59°
2026-05-04 01:54 50.19066 -116.82337 35833 ft 432 kts 59°
2026-05-04 01:54 50.20318 -116.78091 35416 ft 427 kts 59°
2026-05-04 01:54 50.21550 -116.73897 34883 ft 425 kts 59°
2026-05-04 01:55 50.22783 -116.69704 34349 ft 423 kts 59°
2026-05-04 01:55 50.23591 -116.66949 34011 ft 421 kts 59°
2026-05-04 01:55 50.24806 -116.62790 33455 ft 420 kts 60°
2026-05-04 01:55 50.26012 -116.58644 32923 ft 418 kts 60°
2026-05-04 01:56 50.27214 -116.54522 32414 ft 416 kts 60°
2026-05-04 01:56 50.28413 -116.50411 31915 ft 414 kts 60°
2026-05-04 01:56 50.29603 -116.46325 31441 ft 412 kts 60°
2026-05-04 01:56 50.30792 -116.42241 30933 ft 411 kts 60°
2026-05-04 01:57 50.31972 -116.38179 30441 ft 411 kts 60°
2026-05-04 01:57 50.33155 -116.34102 29931 ft 410 kts 60°
2026-05-04 01:57 50.34333 -116.30033 29379 ft 410 kts 60°
2026-05-04 01:57 50.35507 -116.25974 28914 ft 408 kts 60°
2026-05-04 01:58 50.36676 -116.21925 28411 ft 407 kts 60°
2026-05-04 01:58 50.37838 -116.17894 27901 ft 405 kts 60°
2026-05-04 01:58 50.38947 -116.13913 27414 ft 405 kts 65°
2026-05-04 01:58 50.39821 -116.09784 26945 ft 405 kts 66°
2026-05-04 01:59 50.40710 -116.05683 26530 ft 401 kts 65°
2026-05-04 01:59 50.41619 -116.01551 26079 ft 399 kts 65°
2026-05-04 01:59 50.42527 -115.97453 25639 ft 398 kts 65°
2026-05-04 01:59 50.43434 -115.93368 25200 ft 396 kts 65°
2026-05-04 02:00 50.44341 -115.89284 24769 ft 395 kts 65°
2026-05-04 02:00 50.45244 -115.85211 24346 ft 395 kts 65°
2026-05-04 02:00 50.46144 -115.81145 23925 ft 395 kts 65°
2026-05-04 02:00 50.47044 -115.77069 23489 ft 395 kts 65°
2026-05-04 02:01 50.47940 -115.73001 23004 ft 394 kts 65°
2026-05-04 02:01 50.48832 -115.68943 22551 ft 392 kts 65°
2026-05-04 02:01 50.49718 -115.64908 22153 ft 389 kts 65°
2026-05-04 02:01 50.50594 -115.60908 21763 ft 386 kts 66°
2026-05-04 02:02 50.51465 -115.56926 21357 ft 384 kts 66°
2026-05-04 02:02 50.52315 -115.53032 20972 ft 382 kts 66°
2026-05-04 02:02 50.53168 -115.49118 20586 ft 380 kts 66°
2026-05-04 02:02 50.54020 -115.45193 20175 ft 378 kts 66°
2026-05-04 02:03 50.54859 -115.41283 19809 ft 377 kts 66°
2026-05-04 02:03 50.55693 -115.37387 19389 ft 375 kts 66°
2026-05-04 02:03 50.56521 -115.33522 19021 ft 372 kts 65°
2026-05-04 02:03 50.57338 -115.29702 18655 ft 370 kts 65°
2026-05-04 02:04 50.58155 -115.25877 18224 ft 367 kts 65°
2026-05-04 02:04 50.58958 -115.22099 17799 ft 363 kts 66°
2026-05-04 02:04 50.59752 -115.18358 17408 ft 360 kts 66°
2026-05-04 02:04 50.60544 -115.14624 17034 ft 359 kts 66°
2026-05-04 02:05 50.61331 -115.10909 16654 ft 357 kts 67°
2026-05-04 02:05 50.62110 -115.07215 16288 ft 354 kts 67°
2026-05-04 02:05 50.62889 -115.03542 15860 ft 353 kts 68°
2026-05-04 02:05 50.63665 -114.99878 15524 ft 351 kts 68°
2026-05-04 02:06 50.64434 -114.96242 15182 ft 351 kts 68°
2026-05-04 02:06 50.65201 -114.92603 14841 ft 348 kts 68°
2026-05-04 02:06 50.65962 -114.88991 14494 ft 346 kts 68°
2026-05-04 02:06 50.66706 -114.85441 14009 ft 344 kts 69°
2026-05-04 02:07 50.67449 -114.81877 13732 ft 341 kts 69°
2026-05-04 02:07 50.68184 -114.78339 13421 ft 337 kts 69°
2026-05-04 02:07 50.68904 -114.74876 13278 ft 328 kts 69°
2026-05-04 02:07 50.69602 -114.71509 13135 ft 318 kts 69°
2026-05-04 02:08 50.70281 -114.68232 12979 ft 309 kts 69°
2026-05-04 02:08 50.71186 -114.65240 12741 ft 298 kts 47°
2026-05-04 02:08 50.72589 -114.62911 12502 ft 289 kts 41°
2026-05-04 02:08 50.73968 -114.60638 12296 ft 284 kts 42°
2026-05-04 02:09 50.75323 -114.58410 12092 ft 279 kts 41°
2026-05-04 02:09 50.76668 -114.56207 11897 ft 280 kts 40°
2026-05-04 02:09 50.77983 -114.54055 11573 ft 282 kts 40°
2026-05-04 02:09 50.79326 -114.51856 11276 ft 281 kts 40°
2026-05-04 02:10 50.80682 -114.49652 10963 ft 277 kts 38°
2026-05-04 02:10 50.82068 -114.47552 10676 ft 275 kts 38°
2026-05-04 02:10 50.83441 -114.45471 10409 ft 272 kts 38°
2026-05-04 02:10 50.84597 -114.43118 10198 ft 274 kts 58°
2026-05-04 02:11 50.85179 -114.40248 10068 ft 273 kts 70°
2026-05-04 02:11 50.85676 -114.37328 9864 ft 279 kts 69°
2026-05-04 02:11 50.86213 -114.34359 9544 ft 283 kts 68°
2026-05-04 02:11 50.86762 -114.31363 9223 ft 282 kts 68°
2026-05-04 02:12 50.87312 -114.28404 8955 ft 279 kts 68°
2026-05-04 02:12 50.87859 -114.25475 8689 ft 276 kts 68°
2026-05-04 02:12 50.88400 -114.22591 8363 ft 269 kts 68°
2026-05-04 02:12 50.88920 -114.19817 8193 ft 254 kts 67°
2026-05-04 02:13 50.89403 -114.17228 8092 ft 238 kts 67°
2026-05-04 02:13 50.89865 -114.14770 7970 ft 236 kts 67°
2026-05-04 02:13 50.90330 -114.12284 7741 ft 235 kts 67°
2026-05-04 02:13 50.90787 -114.09847 7515 ft 228 kts 66°
2026-05-04 02:14 50.91230 -114.07477 7316 ft 223 kts 66°
2026-05-04 02:14 50.91665 -114.05142 7130 ft 219 kts 66°
2026-05-04 02:14 50.92094 -114.02849 6966 ft 215 kts 66°
2026-05-04 02:14 50.92745 -114.00802 6805 ft 203 kts 41°
2026-05-04 02:15 50.93903 -113.99672 6675 ft 194 kts 14°
2026-05-04 02:15 50.95184 -113.99276 6507 ft 179 kts
2026-05-04 02:15 50.96353 -113.99146 6366 ft 157 kts
2026-05-04 02:15 50.97354 -113.99092 6244 ft 135 kts
2026-05-04 02:16 50.98285 -113.99066 6069 ft 134 kts
2026-05-04 02:16 50.99222 -113.99050 5912 ft 134 kts
2026-05-04 02:16 51.00145 -113.99041 5731 ft 131 kts
2026-05-04 02:16 51.01040 -113.99034 5578 ft 131 kts
2026-05-04 02:17 51.01953 -113.99032 5417 ft 132 kts
2026-05-04 02:17 51.02870 -113.99029 5247 ft 131 kts
2026-05-04 02:17 51.03783 -113.99027 5071 ft 132 kts
2026-05-04 02:17 51.04699 -113.99027 4899 ft 131 kts
2026-05-04 02:18 51.05610 -113.99028 4687 ft 132 kts
2026-05-04 02:18 51.06540 -113.99059 4519 ft 134 kts
2026-05-04 02:18 51.07471 -113.99079 4289 ft 133 kts
2026-05-04 02:18 51.08415 -113.99082 4136 ft 137 kts
2026-05-04 02:19 51.09359 -113.99068 3945 ft 134 kts
2026-05-04 02:19 51.10290 -113.99048 3752 ft 135 kts
2026-05-04 02:19 51.11239 -113.99044 3568 ft 134 kts
2026-05-04 02:19 51.12042 -113.99030 3562 ft 87 kts
2026-05-04 02:20 51.12454 -113.99037 3565 ft 39 kts 359°
2026-05-04 02:20 51.12725 -113.99034 3562 ft 39 kts
2026-05-04 02:20 51.12946 -113.99074 3563 ft 24 kts 343°
2026-05-04 02:20 51.13097 -113.99200 3559 ft 25 kts 322°
2026-05-04 02:21 51.13154 -113.99302 3560 ft 9 kts 293°
2026-05-04 02:21 51.13155 -113.99407 3558 ft 10 kts 249°
2026-05-04 02:21 51.13089 -113.99445 3562 ft 11 kts 180°
2026-05-04 02:21 51.13003 -113.99445 3556 ft 13 kts 179°
2026-05-04 02:22 51.12905 -113.99444 3562 ft 15 kts 181°
2026-05-04 02:22 51.12794 -113.99445 3562 ft 17 kts 180°
2026-05-04 02:22 51.12710 -113.99481 3558 ft 9 kts 233°
2026-05-04 02:22 51.12701 -113.99593 3562 ft 11 kts 273°
2026-05-04 02:23 51.12700 -113.99733 3562 ft 14 kts 270°
2026-05-04 02:23 51.12699 -113.99921 3562 ft 19 kts 270°
2026-05-04 02:23 51.12702 -114.00161 3562 ft 24 kts 269°
2026-05-04 02:23 51.12701 -114.00427 3562 ft 24 kts 270°
2026-05-04 02:24 51.12701 -114.00656 3562 ft 15 kts 270°
2026-05-04 02:24 51.12722 -114.00791 3558 ft 11 kts 309°
2026-05-04 02:24 51.12749 -114.00901 3562 ft 9 kts 277°
2026-05-04 02:24 51.12771 -114.01004 3562 ft 8 kts 307°
2026-05-04 02:25 51.12786 -114.01014 3562 ft 2 kts 358°
2026-05-04 02:25 51.12807 -114.00993 3562 ft 5 kts 45°
2026-05-04 02:25 51.12824 -114.00951 3562 ft 3 kts 59°
2026-05-04 02:25 51.12828 -114.00940 3559 ft 0 kts 59°